This demonstration page uses our WeatherBlox Daily Observations layout. Learn more.

Left ArrowRight Arrow

Hourly Observations for January 4, 2017

Temp ( °F °C ) Dew Point ( °F °C ) Humidity (%) Winds ( mph kmh ) Pressure ( in mb ) Visibility ( mi km ) Precip ( " mm )
12:59 am 00:59 Cloudy 54 12.2 51 10.6 90 90 SW 10 17 29.59 1002 10 16 0.00 0.00
1:20 am 01:20 Cloudy 55 12.8 51 10.6 87 87 SW 13 20 29.59 1002 10 16 0.00 0.00
1:59 am 01:59 Cloudy 55 12.8 51 10.6 87 87 WSW 15 24 29.58 1002 10 16 0.00 0.00
2:59 am 02:59 Mostly Cloudy 55 12.8 51 10.6 87 87 WSW 14 22 29.59 1002 10 16 0.00 0.00
3:59 am 03:59 Cloudy 55 12.8 51 10.6 87 87 WSW 12 19 29.59 1002 10 16 0.00 0.00
4:59 am 04:59 Cloudy 54 12.2 51 10.6 90 90 WSW 9 15 29.59 1002 10 16 0.00 0.00
5:59 am 05:59 Cloudy 54 12.2 51 10.6 90 90 WSW 9 15 29.61 1003 10 16 0.00 0.00
6:59 am 06:59 Mostly Cloudy 54 12.2 51 10.6 90 90 WSW 9 15 29.62 1003 10 16 0.00 0.00
7:59 am 07:59 Mostly Cloudy 54 12.2 51 10.6 90 90 WSW 9 15 29.63 1003 8 13 0.00 0.00
8:59 am 08:59 Mostly Cloudy 55 12.8 51 10.6 87 87 WSW 9 15 29.63 1004 8 13 0.00 0.00
9:59 am 09:59 Mostly Cloudy 56 13.3 52 11.1 87 87 W 13 20 29.66 1004 10 16 0.00 0.00
10:59 am 10:59 Cloudy 57 13.9 52 11.1 83 83 W 13 20 29.65 1004 10 16 0.00 0.00
11:59 am 11:59 Cloudy 58 14.4 52 11.1 81 81 W 9 15 29.64 1004 10 16 0.00 0.00
1:59 pm 13:59 Mostly Cloudy 58 14.4 50 10 75 75 W 9 15 29.63 1003 10 16 0.00 0.00
2:59 pm 14:59 Mostly Cloudy 60 15.6 49 9.4 67 67 W 8 13 29.64 1004 10 16 0.00 0.00
3:59 pm 15:59 Mostly Cloudy 59 15 46 7.8 62 62 W 13 20 29.67 1005 10 16 0.00 0.00
4:59 pm 16:59 Mostly Cloudy 56 13.3 45 7.2 67 67 W 13 20 29.70 1006 10 16 0.00 0.00
5:59 pm 17:59 Partly Cloudy 54 12.2 35 1.7 49 49 WNW 13 20 29.74 1007 10 16 0.00 0.00
6:59 pm 18:59 Mostly Clear 53 11.7 33 0.6 47 47 W 16 26 29.78 1008 10 16 0.00 0.00
7:59 pm 19:59 Mostly Clear 50 10 30 -1.1 46 46 W 12 19 29.81 1010 10 16 0.00 0.00
8:59 pm 20:59 Partly Cloudy 49 9.4 29 -1.7 46 46 W 13 20 29.84 1011 10 16 0.00 0.00
9:59 pm 21:59 Clear 49 9.4 23 -5 36 36 WNW 15 24 29.87 1012 10 16 0.00 0.00
10:59 pm 22:59 Mostly Cloudy 46 7.8 25 -3.9 44 44 WNW 10 17 29.91 1013 10 16 0.00 0.00
11:59 pm 23:59 Mostly Cloudy 45 7.2 17 -8.3 33 33 WNW 14 22 29.91 1013 10 16 0.00 0.00

Powered by AerisWeather